Terug naar catalogus

STARLINK-33708

ActiefCommunicatieVLEO
NORAD 63405·PAYLOAD·🇺🇸 United States

Gelanceerd Mar 31, 2025 vanaf Cape Canaveral Space Force Station

Loading…

Volgende Passages (komende 24 uur)

TLE

VersSource: CelesTrak SupGP

Epoch: Sep 15, 2026, 03:31 UTC

1 63405C 25065G   26258.14701389  .00041885  00000+0  15169-2 0  2589
2 63405  43.0020 117.0304 0001484 278.9068 169.2821 15.27560647    15

Volg STARLINK-33708 in realtime met AllMySat

Download on the App Store